Hourly Data Report for February 12, 2019

MIRAMICHI RCS
NEW BRUNSWICK
Current Station Operator: ECCC - MSC

47°00'34.000" N
65°27'54.000" W
33.00 m
8100989
71744
ACQ

Download Data

Hourly Data (February 2019)
Hourly Data Report for February 12, 2019
TIME
LST
Temp Definition
°C
Dew Point Definition
°C
Rel Hum Definition
%
Precip. Amount Definition
mm

Wind Dir Definition
10's deg

Wind Spd Definition
km/h
Visibility Definition
km
Stn Press Definition
kPa
Hmdx Definition


Wind Chill Definition


Weather Definition


00:00 -14.3 -21.0 57 0.0 31 7   101.93   -19 LegendNANA
01:00 -13.6 -20.7 55 0.0 30 10   101.98   -20 LegendNANA
02:00 -13.1 -20.2 55 0.0 31 12   102.02   -20 LegendNANA
03:00 -12.9 -19.8 56 0.0 31 16   102.06   -21 LegendNANA
04:00 -13.2 -19.8 58 0.0 30 15   102.10   -21 LegendNANA
05:00 -12.7 -19.5 57 0.0 31 16   102.19   -20 LegendNANA
06:00 -12.5 -19.8 55 0.0 31 12   102.25   -19 LegendNANA
07:00 -13.0 -20.1 55 0.0 30 17   102.38   -21 LegendNANA
08:00 -13.3 -20.4 55 0.0 30 15   102.48   -21 LegendNANA
09:00 -12.3 -20.3 51 0.0 31 11   102.55   -18 LegendNANA
10:00 -10.2 -19.6 46 0.0 30 9   102.62   -15 LegendNANA
11:00 -7.9 -18.9 41 0.0 30 11   102.58   -13 LegendNANA
12:00 -5.5 -18.8 34 0.0 30 11   102.59   -10 LegendNANA
13:00 -3.7 -18.3 31 0.0 32 13   102.52   -9 LegendNANA
14:00 -2.3 -18.6 27 0.0 32 10   102.44   -6 LegendNANA
15:00 -2.0 -20.7 23 0.0 34 9   102.44   -5 LegendNANA
16:00 -2.9 -21.5 22 0.0 35 9   102.39   -6 LegendNANA
17:00 -4.2 -20.5 27 0.0 34 8   102.43   -8 LegendNANA
18:00 -5.5 -19.6 32 0.0 36 5   102.48   -8 LegendNANA
19:00 -6.6 -18.6 38 0.0 35 5   102.48   -9 LegendNANA
20:00 -6.9 -19.6 36 0.0 34 7   102.51   -10 LegendNANA
21:00 -7.7 -19.2 39 0.0 35 5   102.45   -10 LegendNANA
22:00 -8.0 -19.1 40 0.0 2 6   102.34   -11 LegendNANA
23:00 -8.6 -18.1 46 0.0 5 4   102.33   -11 LegendNANA

Notes on Data Quality.

Legend

  • E = Estimated
  • M = Missing
  • NA = Not Available*
  • [empty] = Indicates an unobserved value
Date modified: